Location: Maddington
(51.2000°N, 1.9167°W)
Time: 22:06:34
(UTC+00:00)

NOSS 3-2 (A) - Pass Details

Date: 19 January 2021
Orbit: 783 x 1425 km, 63.4° (Epoch: 07 March)

Event Time Altitude Azimuth Distance (km) Brightness Sun altitude
Rises 07:18:51 0° 208° (SSW) 3,340 6.3 -6.7°
Reaches altitude 10° 07:21:10 10° 205° (SSW) 2,461 5.6 -6.4°
Maximum altitude 07:26:45 62° 126° (SE) 1,036 4.1 -5.6°
Drops below altitude 10° 07:33:13 10° 48° (NE) 2,845 6.2 -4.7°
Sets 07:36:05 0° 45° (NE) 3,904 6.9 -4.3°
